Theta_e
344 344 358 360 361 360 360 360 360 360 360 360 360 360 360 360 360 359 357 357 359 357 355 355 354 353 353 353 353 352 351 350 348 347 345 345 345 345 343 344 347 340 344
349 345 357 360 361 360 359 358 358 359 360 359 359 359 359 359 359 359 358 357 357 356 356 357 356 355 355 354 353 352 352 352 352 350 344 344 345 344 343 345 348 345 345
352 350 348 359 361 360 359 358 358 359 359 358 358 358 358 358 358 358 357 357 357 356 355 355 355 354 354 353 353 353 352 353 353 354 356 353 346 347 345 345 346 345 345
351 353 350 357 360 360 359 358 357 357 357 357 357 356 356 357 357 357 357 356 355 355 354 353 352 352 351 350 350 350 351 352 353 354 351 354 347 349 348 345 345 344 343
350 359 358 359 358 359 358 358 357 357 356 356 356 356 356 356 356 356 356 356 355 355 355 354 354 353 353 353 353 353 353 354 355 353 349 347 350 350 349 348 346 345 344
348 360 358 359 357 357 358 358 357 356 356 356 355 355 355 355 355 356 356 356 357 356 356 355 355 355 354 354 354 355 355 354 354 348 349 349 347 352 352 349 347 346 345
350 354 354 358 357 355 354 355 356 357 357 357 357 356 355 355 355 355 356 357 357 357 357 357 358 358 358 356 356 356 355 355 350 347 347 349 349 355 353 351 350 348 347
350 354 355 357 357 357 356 355 355 357 356 355 356 356 356 356 356 355 355 355 355 354 355 355 355 356 357 357 357 356 356 355 349 348 349 348 351 355 351 349 353 351 349
349 351 356 357 359 359 358 356 355 355 355 354 355 355 356 356 356 356 356 355 355 355 355 355 356 357 358 358 357 357 356 356 352 348 348 346 356 355 352 350 353 354 351
344 345 345 351 357 359 358 358 358 357 357 357 357 358 357 358 358 357 357 356 355 355 355 356 357 358 358 358 358 358 355 355 351 347 346 351 353 350 349 353 353 357 354
345 348 350 347 348 349 351 354 355 357 358 359 358 358 357 353 351 356 359 355 354 353 355 355 356 357 357 357 357 357 356 352 350 346 344 350 348 349 352 355 354 357 357
342 346 350 352 350 349 347 351 352 351 351 351 352 355 354 354 355 352 351 352 353 354 356 357 358 357 357 354 353 357 353 350 343 341 343 353 349 345 345 351 356 357 358
344 346 348 351 351 348 341 340 337 338 338 341 343 348 350 348 352 348 346 350 351 350 347 348 349 354 350 351 348 356 350 346 340 339 345 350 348 344 346 348 352 358 356
342 343 345 344 342 344 337 334 334 333 334 334 339 342 343 337 339 337 336 338 341 341 342 342 342 345 350 351 349 345 343 342 341 340 344 352 348 346 346 347 350 354 358
337 337 335 338 342 343 341 336 336 336 334 337 335 338 336 336 338 335 335 333 333 334 334 335 338 342 342 344 343 344 343 344 343 341 341 351 350 348 345 346 349 352 356
335 333 336 338 342 340 343 343 337 336 335 333 333 336 337 336 340 335 332 330 331 333 333 333 333 335 335 336 336 338 339 341 338 339 337 339 349 348 348 347 351 352 354
333 337 339 338 339 342 339 339 336 334 332 333 333 335 335 336 337 338 329 326 328 331 328 331 331 334 332 332 336 335 335 335 335 336 335 336 337 348 348 348 350 352 353
333 338 339 334 334 338 341 338 335 334 335 331 333 333 332 333 333 337 328 326 329 330 326 325 326 326 328 332 332 330 332 333 334 334 334 333 334 337 349 353 353 354 353
335 334 334 335 333 338 339 337 337 343 334 333 333 332 333 333 329 332 328 327 334 326 326 326 327 327 323 327 326 330 327 332 332 330 332 336 340 340 338 350 353 354 355
334 334 334 334 337 341 338 342 334 331 330 329 328 328 332 332 332 332 330 331 330 326 325 328 332 325 323 323 322 323 325 324 328 331 331 337 338 341 342 350 351 352 353
333 333 335 336 339 338 335 332 330 328 329 327 328 331 331 330 331 333 329 330 330 326 331 328 328 324 321 322 318 320 322 327 329 329 330 333 340 340 345 346 350 353 349
332 335 338 338 340 340 337 337 335 333 331 330 330 337 333 327 329 329 329 329 332 325 333 329 331 323 320 323 316 314 310 315 323 326 327 337 338 340 339 342 345 347 348
333 335 336 338 341 341 340 334 332 332 328 322 324 325 327 326 326 328 326 328 328 327 320 327 327 322 316 323 328 316 309 308 313 322 329 331 336 337 337 337 342 344 346
333 335 335 334 334 332 333 330 329 323 320 321 320 321 323 324 324 324 327 326 328 322 324 323 323 326 328 320 319 320 323 318 311 310 324 333 334 334 336 338 340 341 343
328 326 326 325 329 330 329 328 323 325 321 320 319 324 327 325 326 320 323 323 322 318 319 319 321 324 323 325 323 315 317 315 316 314 310 320 327 331 331 333 335 339 340
324 323 324 324 325 327 326 325 326 323 322 318 318 317 316 317 318 322 320 320 318 318 317 317 319 320 323 322 322 323 316 313 312 318 314 316 320 324 325 326 326 331 334
Wind_Speed
14 15 9 9 9 9 9 9 9 9 9 8 9 9 9 9 10 10 10 10 10 10 10 9 8 8 9 10 10 10 11 11 10 8 6 7 8 7 6 7 9 13 9
19 14 9 9 8 8 9 8 8 8 8 7 7 8 8 8 8 8 7 7 7 8 7 7 6 6 7 7 7 7 7 8 7 6 2 4 8 7 5 8 15 11 9
16 12 12 8 8 8 8 8 8 7 6 6 5 6 7 7 7 6 5 5 5 5 5 4 4 4 4 4 4 4 5 5 6 10 12 11 10 9 5 5 7 8 7
9 12 13 9 7 7 8 7 6 5 4 4 3 3 3 4 5 5 4 3 3 3 4 3 2 1 1 2 3 4 6 8 10 14 12 11 11 15 10 4 3 4 4
8 17 14 11 9 7 8 8 8 6 4 3 2 1 1 1 1 2 2 2 2 2 2 2 2 2 2 3 4 5 6 8 10 14 15 9 6 12 12 8 6 5 3
10 19 13 11 9 9 8 7 5 5 4 3 3 3 3 4 4 3 4 4 5 5 4 4 5 6 5 6 6 6 7 8 11 15 12 7 5 15 12 9 4 3 4
9 15 13 9 8 7 7 7 7 6 7 7 6 5 5 5 6 6 6 7 7 7 7 7 7 7 8 8 8 9 9 10 11 12 11 3 3 13 10 8 7 7 7
7 13 12 10 8 8 8 7 6 5 5 6 6 6 7 7 8 9 9 9 10 10 10 9 10 9 9 10 10 10 10 11 12 13 15 7 17 14 11 7 10 11 11
9 8 11 13 10 8 6 5 5 5 7 7 7 7 8 9 10 11 11 11 12 11 11 11 11 11 11 11 11 11 12 12 12 11 14 5 10 8 6 6 11 14 13
7 9 10 8 15 14 13 9 6 6 7 8 9 10 10 10 14 14 13 15 13 11 11 12 13 13 13 13 14 14 14 13 14 14 13 7 13 6 3 6 9 14 14
7 6 7 9 7 3 9 10 10 11 11 11 12 13 9 11 11 16 15 7 9 11 12 13 13 14 14 16 20 22 18 9 13 12 5 13 11 7 2 6 9 12 15
9 8 8 9 5 6 3 2 4 5 1 3 8 7 9 9 6 7 8 9 10 12 14 17 16 16 15 13 13 17 9 13 10 4 4 12 10 6 5 7 10 12 14
8 6 9 7 5 6 5 5 4 4 4 3 8 8 8 7 6 4 3 5 7 8 9 8 10 11 12 10 6 11 19 3 3 5 3 12 10 5 7 10 11 13 15
9 5 9 8 5 5 4 5 5 5 5 6 4 7 5 6 7 8 7 9 8 6 8 8 7 11 10 13 13 11 13 11 6 6 1 11 10 7 8 10 12 12 13
8 9 8 7 6 3 5 5 6 7 6 5 5 8 7 8 6 8 7 8 9 9 9 8 9 6 10 11 13 12 9 8 11 5 8 11 12 11 10 10 12 13 12
7 7 7 8 4 6 4 4 4 5 5 6 6 6 9 7 5 8 8 8 8 7 9 10 10 9 9 11 10 12 11 8 10 10 8 6 12 13 11 10 9 11 12
8 7 6 4 5 4 4 5 5 4 8 6 6 6 4 7 6 7 9 8 8 9 12 9 10 9 10 7 8 9 9 12 10 9 8 9 9 12 10 8 7 10 12
10 6 4 5 4 4 4 6 6 7 7 9 7 7 9 6 8 6 8 9 8 7 11 9 9 10 9 6 9 6 8 8 9 9 9 12 9 5 8 7 6 8 12
7 4 3 3 4 7 6 7 8 8 7 8 8 7 8 8 11 8 8 9 9 9 11 10 8 9 8 9 6 5 10 8 8 11 12 8 7 7 8 7 6 4 10
5 3 1 4 5 6 7 7 8 8 9 9 9 10 8 8 13 9 10 8 7 10 8 8 10 8 11 10 10 10 8 7 9 7 10 7 12 4 6 5 5 6 9
4 2 3 5 6 6 8 9 9 9 11 11 11 13 12 10 11 6 9 11 10 10 4 7 8 9 9 11 10 7 11 10 11 9 8 9 2 10 5 4 1 3 7
4 4 5 7 7 7 8 8 9 9 11 10 12 11 7 7 6 10 10 10 11 11 11 8 8 7 10 10 10 11 11 10 11 11 9 4 10 4 6 2 3 7 7
5 6 8 6 7 8 10 9 8 9 10 11 11 11 11 11 11 12 12 11 10 10 12 12 6 7 2 15 10 11 8 11 12 5 3 1 6 4 3 4 5 4 9
7 8 6 7 6 6 6 8 8 9 10 10 11 11 11 14 14 15 16 12 10 11 12 12 13 12 10 9 10 10 7 4 12 13 2 6 2 3 4 5 6 3 7
6 6 3 3 6 5 7 8 9 11 11 12 12 15 14 14 16 16 13 12 8 8 11 13 13 13 10 10 11 0 13 10 10 11 12 5 5 1 4 7 4 3 4
4 6 6 7 6 8 9 10 12 13 13 13 13 14 13 11 11 10 9 8 8 9 10 10 13 14 13 12 11 11 7 5 3 10 8 13 6 4 4 4 5 4 3
Wind_Direction
102 108 110 102 99 105 110 114 116 115 112 108 102 94 89 87 85 83 84 84 82 84 87 88 82 78 68 60 54 47 45 43 42 43 55 80 83 73 43 18 325 85 74
99 112 110 105 102 108 113 113 112 111 109 104 99 102 105 102 99 98 96 92 92 93 88 85 85 77 69 64 53 45 41 36 21 355 318 144 107 86 55 37 36 75 76
97 114 136 119 115 111 111 113 111 108 110 113 119 131 133 129 126 123 120 115 113 109 106 99 84 68 58 47 40 26 6 354 334 309 299 241 116 126 98 52 61 75 73
111 130 122 115 112 107 101 101 105 112 123 136 145 143 136 135 138 143 148 152 154 153 148 146 139 116 39 6 350 347 341 333 325 309 278 250 147 147 139 117 85 80 98
142 104 114 125 124 130 134 141 145 148 158 156 177 200 267 258 200 190 196 219 226 243 244 247 249 254 272 292 302 309 314 316 313 293 280 29 54 134 141 144 162 170 106
116 92 114 127 149 159 157 151 155 153 168 185 208 227 229 245 256 261 263 267 271 272 273 278 285 287 282 281 284 285 289 298 301 278 257 112 275 144 149 158 186 134 160
83 115 127 136 146 152 162 168 183 191 197 213 222 246 267 280 283 282 281 281 279 280 281 281 279 273 271 275 277 281 286 289 286 296 309 176 136 143 146 170 192 194 192
78 112 137 138 147 162 168 181 194 210 230 240 244 251 260 265 267 270 270 270 275 277 280 279 277 274 270 267 268 271 274 280 285 271 275 261 131 146 150 168 206 207 205
119 114 146 142 146 160 167 181 196 210 230 239 250 251 255 256 257 256 254 257 258 264 268 272 271 267 264 261 258 256 262 268 278 281 282 281 109 111 145 182 211 209 214
107 124 134 176 167 174 159 165 191 214 228 236 243 246 252 258 252 240 241 233 241 252 260 265 266 264 258 252 249 242 238 248 256 261 251 106 118 119 203 219 220 215 213
98 59 25 69 96 42 90 144 194 211 218 227 228 225 233 245 260 224 219 142 209 242 255 256 256 257 253 248 241 229 220 226 249 238 277 117 106 113 206 240 232 229 216
84 72 43 36 67 79 70 83 166 180 200 327 344 341 273 336 312 321 289 212 223 236 254 247 244 245 243 248 246 214 232 221 232 315 295 130 132 153 209 238 237 227 226
88 92 110 97 61 15 24 319 21 33 7 48 41 356 355 327 18 300 313 196 251 206 259 208 240 226 257 288 124 225 226 252 302 267 143 144 142 180 239 251 248 236 226
109 109 92 89 86 30 11 18 54 61 6 39 24 26 4 339 2 356 342 340 322 336 338 284 300 303 321 299 296 292 300 310 293 287 140 145 151 190 232 248 256 249 251
118 93 100 82 76 73 31 47 29 347 39 333 14 44 355 336 18 329 344 317 337 330 322 331 319 329 312 291 280 273 263 264 299 322 303 164 177 190 215 240 252 249 246
111 113 104 102 84 90 60 27 331 40 335 344 347 22 337 345 14 315 319 351 313 327 334 318 315 318 308 310 305 300 294 307 279 272 274 249 190 199 203 216 236 244 241
112 102 99 114 83 33 14 353 340 348 333 327 330 330 324 331 328 334 311 317 328 358 313 313 310 303 295 297 321 299 281 269 261 264 264 270 248 204 193 203 221 233 236
131 114 69 23 28 40 28 328 328 322 334 306 318 317 314 312 321 312 316 317 1 311 317 312 307 307 303 330 320 321 311 326 306 282 269 263 260 289 169 169 194 216 225
120 112 105 23 355 351 337 325 303 293 289 302 291 307 329 330 312 314 304 317 343 308 297 312 351 352 328 326 288 322 345 328 328 299 291 282 282 274 271 125 126 188 205
150 137 320 318 325 334 302 278 272 305 302 310 322 301 310 318 303 333 316 300 315 292 303 324 331 323 313 269 284 288 291 301 323 305 300 345 296 238 273 33 149 98 115
189 240 296 321 305 307 297 314 296 314 318 308 305 301 302 274 274 315 303 309 307 288 302 287 298 299 287 290 285 266 278 236 252 276 291 279 327 346 126 261 137 147 120
240 279 285 282 291 306 304 322 314 299 288 294 287 281 321 63 299 313 327 309 307 308 291 281 273 263 269 278 285 296 296 270 236 230 252 343 307 36 339 357 234 178 142
276 288 273 291 337 320 321 302 302 313 303 304 326 327 319 338 320 307 312 294 293 286 285 290 285 271 227 276 288 278 290 290 291 294 154 152 268 306 315 287 290 192 164
268 290 346 358 330 324 353 332 347 298 307 334 300 309 326 312 307 302 280 286 299 299 292 284 270 283 288 281 287 279 262 208 289 289 191 155 244 323 298 313 314 292 170
338 322 319 327 321 337 336 333 321 324 325 315 314 314 311 294 276 291 303 296 319 342 329 318 310 291 279 275 274 32 298 254 222 270 273 229 220 42 1 352 346 333 134
319 336 325 325 306 316 318 318 317 311 316 309 309 298 289 302 306 305 342 346 331 316 309 309 302 295 284 284 266 261 232 308 248 251 258 280 256 226 272 340 356 335 103